CZ-6A DEB, 56673

Orbit data source: Space-Track

CZ-6A DEB, 56673 is space debris in SSO originally from a launch on Fri, 11 Nov 2022 UTC launched from the Taiyaun Space Center, China (TSC). Debris objects in space refer to the collection of defunct objects orbiting the Earth. Examples of debris include non-operational satellites, rocket bodies, and fragments generated from explosions, collisions, or faulty payload assembly.

Loading next visibility...
Identifier
56673, 2022-151AGZ
Orbit
SSO
Country
Flag of CNCN / PRC
Related business
Manufacturer
SAST
Mission
Spacecraft
Bus & Motor
Unknown
Mass
Unknown
Launch date (UTC)
2022-11-11 (4 years ago)
Launch vehicle
Unknown
Launch site
Taiyaun Space Center, China (TSC)
Object type
Payload
Rocket body
Debris
Shape & HBR
Unknown shape, 0.1 m
Radar Cross Section
Small (<0.1 m²)

Expand to show TLE details & history
Last TLE update: 22 hours ago

TLE from 22 hours ago
0 CZ-6A DEB
1 56673U 22151AGZ 26236.53840631  .00002522  00000-0  84084-3 0  9995
2 56673  98.7386 273.0747 0034627 109.1007 251.3934 14.38123344105747
Epoch: 2026-08-24T12:55Z
TLE epoch observation values (Epoch: 2026-08-24T12:55:18.305Z)
Latitude
-0°
Longitude
106.42976°
Altitude
775.614 km
Speed
7.462 km/s
True Right ascension
18h 12m 17s
True Declination
0° 00' 00"
Sunlit
Object was in full shadow at epoch
Visualization orbit readout
Latitude
Unknown
Longitude
Unknown
Altitude
Unknown
Speed
Unknown
Apparent Right ascension
Unknown
Apparent Declination
Unknown
Sunlit
N/A
Visualization observer readout
Local Sidereal Time
02:04:55
Azimuth
Unknown
Elevation
Unknown
Doppler factor
Unknown
Orbital elements
Apogee altitude
786.565 km
Perigee altitude
737.118 km
Semi-major axis
7,139.978 km
Eccentricity
0.00346
Inclination
98.7386°
RAAN
273.0747°
Arg. of periapsis
109.1007°
True anomaly
251.01787°
Mean anomaly
251.3934°
Eccentric anomaly
251.20558°
Mean motion
3.59748 °/min
Orbital period
100.07 mins
BSTAR
0.00084084
Loading maneuver chart data...
Computing Atmospheric mass density...

Documentation

Showing up to 5 results
|